Location: Maccacari
(45.1333°N, 11.1333°E)
Time: 17:42:05
(UTC+00:00)

USA 234 - Pass Details

Date: 26 January 2021
Orbit: 1100 x 1107 km, 123.0° (Epoch: 01 March)

Event Time Altitude Azimuth Distance (km) Brightness Sun altitude
Exits shadow 17:47:41 19° 51° (NE) 2,369 4.5 -16.4°
Maximum altitude 17:51:19 32° 4° (N) 1,810 4.3 -17.0°
Drops below altitude 10° 17:56:55 10° 305° (NW) 2,967 6.2 -18.0°
Sets 17:59:40 0° 296° (WNW) 3,926 7.1 -18.5°
